User: anonymous
Location: Brno
(49.2000°N, 16.6330°E)
Time: 02:22:08
(UTC+02:00)
Language:

Cosmos 2227 - Orbit

View from above orbital plane
View from above orbital plane
View from above satellite
View from above satellite

Ground track
Ground track

The orbit data is extracted from the following two-line orbital elements,

1 22284U 92093A   14213.18119500  .00000040  00000-0  46725-4 0  9337
2 22284 070.9761 278.6156 0019868 317.2420 109.5578 14.13155568114163
Epoch (UTC): 01 August 2014 04:20:55
Eccentricity: 0.0019868
inclination: 70.9761°
perigee height: 834 km
apogee height: 863 km
right ascension of ascending node: 278.6156°
argument of perigee: 317.2420°
revolutions per day: 14.13155568
mean anomaly at epoch: 109.5578°
orbit number at epoch: 11416

The dashed part of the orbit path shows where the satellite is in the earth's shadow,  

DLR